sat.trackr.live / text

‹ back to catalog

GONETS-M 15

NORAD 44906 · 2019-096B

PAYLOAD ACTIVE UNKNOWN

§ Identity

Operator
Country
CIS
Launch date
2019-12-26
Launch site
PLMSC
Launch vehicle
Mass (kg)
RCS (m²)

External: N2YO · Heavens-Above · Gunter

§ Orbital elements

Epoch: 2026-09-09T04:44:22.273728Z

Period
115.86 min
Inclination
82.5260°
Eccentricity
0.0015110
Mean motion
12.42884289 rev/d
Perigee alt
1,482.5 km
Apogee alt
1,506.3 km
Semi-major
7,872.5 km
B*
2.9981e-4
RAAN
33.0125°
Arg perigee
356.1256°
Mean anomaly
3.9704°
Rev number
30,408

§ Raw data

GONETS-M 151 44906U 19096B   26252.19748002  .00000051  00000+0  29981-3 0  99932 44906  82.5260  33.0125 0015110 356.1256   3.9704 12.42884289304084

JSON: /api/v1/satellites/44906 · /tle

For live sub-satellite position, see the globe view (requires WebGL).

§ Visibility from observer

Set your observer location to see the next 7 days of passes ≥ 10°. The values pass through the URL so the page stays shareable.

No JS? Fill the form by hand. The geolocation button needs JavaScript.

§ Radio — SatNOGS DB

ModeDescriptionDownlinkUplink
FM UHF Unknown 387.462 MHz

1 transmitter · refreshed weekly from db.satnogs.org